| time (UTC) | temp F | wind direction | speed MPH | gust MPH | rain 1hr in | rain 24hr in | rain mn in | humidity % | barometer mb |
| 20260507040503 | 54 | 331 | 0.0 | 4.0 | 0.01 | 0.23 | 0.00 | 86 | 1006.6 |
| 20260507040027 | 54 | 290 | 1.0 | 7.0 | 0.01 | 0.23 | 0.00 | 86 | 1006.8 |
| 20260507035502 | 55 | 288 | 3.0 | 7.0 | 0.01 | 0.23 | 0.23 | 85 | 1006.7 |
| 20260507035002 | 55 | 306 | 1.0 | 8.0 | 0.01 | 0.23 | 0.23 | 84 | 1006.7 |
| 20260507034521 | 55 | 244 | 4.0 | 8.0 | 0.01 | 0.23 | 0.23 | 1006.7 | |
| 20260507034002 | 56 | 289 | 2.0 | 9.0 | 0.00 | 0.22 | 0.22 | 1006.5 | |
| 20260507033502 | 56 | 284 | 2.0 | 9.0 | 0.00 | 0.22 | 0.22 | 1006.4 | |
| 20260507033021 | 56 | 261 | 1.0 | 6.0 | 0.00 | 0.22 | 0.22 | 88 | 1006.4 |
| 20260507032501 | 56 | 330 | 2.0 | 4.0 | 0.00 | 0.22 | 0.22 | 88 | 1006.2 |
| 20260507032005 | 57 | 302 | 0.0 | 2.0 | 0.00 | 0.22 | 0.22 | 89 | 1006.2 |
| 20260507031522 | 57 | 302 | 0.0 | 4.0 | 0.00 | 0.22 | 0.22 | 89 | 1006.0 |
| 20260507031003 | 57 | 302 | 1.0 | 7.0 | 0.00 | 0.22 | 0.22 | 88 | 1006.0 |
| 20260507030503 | 58 | 288 | 2.0 | 7.0 | 0.00 | 0.22 | 0.22 | 88 | 1005.9 |
| 20260507030023 | 58 | 290 | 1.0 | 7.0 | 0.00 | 0.22 | 0.22 | 88 | 1005.7 |
| 20260507025503 | 58 | 258 | 2.0 | 9.0 | 0.00 | 0.22 | 0.22 | 89 | 1005.7 |
| 20260507025006 | 59 | 305 | 4.0 | 13.0 | 0.00 | 0.22 | 0.22 | 90 | 1005.7 |
| 20260507024525 | 59 | 307 | 1.0 | 13.0 | 0.00 | 0.22 | 0.22 | 92 | 1005.8 |
| 20260507024002 | 59 | 236 | 4.0 | 7.0 | 0.00 | 0.22 | 0.22 | 92 | 1005.9 |
| 20260507023505 | 59 | 269 | 1.0 | 5.0 | 0.00 | 0.22 | 0.22 | 93 | 1005.8 |
| 20260507023028 | 59 | 288 | 2.0 | 7.0 | 0.00 | 0.22 | 0.22 | 93 | 1005.7 |
| 20260507022510 | 59 | 232 | 3.0 | 7.0 | 0.00 | 0.22 | 0.22 | 93 | 1005.7 |
| 20260507022005 | 59 | 263 | 1.0 | 4.0 | 0.00 | 0.22 | 0.22 | 93 | 1005.8 |
| 20260507021524 | 59 | 256 | 1.0 | 3.0 | 0.00 | 0.22 | 0.22 | 93 | 1005.8 |
| 20260507021002 | 59 | 274 | 0.0 | 2.0 | 0.00 | 0.22 | 0.22 | 93 | 1005.6 |
| 20260507020505 | 58 | 296 | 1.0 | 2.0 | 0.00 | 0.22 | 0.22 | 93 | 1005.5 |
| 20260507020027 | 58 | 144 | 0.0 | 2.0 | 0.00 | 0.22 | 0.22 | 92 | 1005.4 |
| 20260507015503 | 58 | 128 | 0.0 | 2.0 | 0.00 | 0.22 | 0.22 | 92 | 1005.4 |
| 20260507015006 | 59 | 140 | 0.0 | 2.0 | 0.00 | 0.22 | 0.22 | 92 | 1005.5 |
| 20260507014542 | 59 | 140 | 0.0 | 2.0 | 0.00 | 0.22 | 0.22 | 92 | 1005.5 |
| 20260507014004 | 59 | 144 | 0.0 | 2.0 | 0.00 | 0.22 | 0.22 | 92 | 1005.4 |
| 20260507013506 | 59 | 144 | 0.0 | 2.0 | 0.00 | 0.22 | 0.22 | 92 | 1005.4 |
| 20260507013026 | 59 | 128 | 0.0 | 2.0 | 0.00 | 0.22 | 0.22 | 92 | 1005.5 |
| 20260507012503 | 59 | 63 | 0.0 | 2.0 | 0.00 | 0.22 | 0.22 | 92 | 1005.4 |
| 20260507012010 | 59 | 332 | 0.0 | 2.0 | 0.00 | 0.22 | 0.22 | 92 | 1005.4 |
| 20260507011504 | 59 | 71 | 0.0 | 2.0 | 0.00 | 0.22 | 0.22 | 92 | 1005.5 |
| 20260507011010 | 59 | 71 | 0.0 | 2.0 | 0.00 | 0.22 | 0.22 | 92 | 1005.4 |
| 20260507010505 | 59 | 77 | 0.0 | 3.0 | 0.00 | 0.22 | 0.22 | 92 | 1005.4 |
| 20260507010009 | 59 | 61 | 1.0 | 3.0 | 0.00 | 0.22 | 0.22 | 92 | 1005.4 |
| 20260507005505 | 59 | 272 | 0.0 | 7.0 | 0.00 | 0.22 | 0.22 | 92 | 1005.4 |
| 20260507005010 | 59 | 63 | 0.0 | 7.0 | 0.00 | 0.22 | 0.22 | 92 | 1005.5 |
| 20260507004510 | 59 | 169 | 1.0 | 3.0 | 0.00 | 0.22 | 0.22 | 92 | 1005.5 |
| 20260507004010 | 59 | 272 | 0.0 | 3.0 | 0.00 | 0.22 | 0.22 | 92 | 1005.4 |
| 20260507003512 | 59 | 188 | 2.0 | 4.0 | 0.00 | 0.22 | 0.22 | 91 | 1005.3 |
| 20260507003008 | 59 | 240 | 1.0 | 4.0 | 0.00 | 0.22 | 0.22 | 91 | 1005.3 |
| 20260507002506 | 59 | 148 | 1.0 | 8.0 | 0.00 | 0.22 | 0.22 | 91 | 1005.2 |
| 20260507002010 | 59 | 290 | 1.0 | 8.0 | 0.00 | 0.22 | 0.22 | 91 | 1005.1 |
| 20260507001510 | 59 | 92 | 1.0 | 8.0 | 0.00 | 0.22 | 0.22 | 91 | 1005.0 |
| 20260507001007 | 59 | 190 | 1.0 | 8.0 | 0.00 | 0.22 | 0.22 | 91 | 1005.0 |
| 20260507000510 | 59 | 235 | 2.0 | 8.0 | 0.00 | 0.22 | 0.22 | 91 | 1005.0 |
| 20260507000012 | 59 | 142 | 1.0 | 7.0 | 0.00 | 0.22 | 0.22 | 91 | 1005.2 |
| 20260506235507 | 59 | 284 | 3.0 | 6.0 | 0.01 | 0.22 | 0.22 | 91 | 1005.2 |
| 20260506235008 | 59 | 223 | 0.0 | 7.0 | 0.02 | 0.22 | 0.22 | 91 | 1005.1 |
| 20260506234515 | 59 | 204 | 1.0 | 7.0 | 0.03 | 0.22 | 0.22 | 91 | 1005.1 |
| 20260506234009 | 59 | 233 | 2.0 | 4.0 | 0.03 | 0.22 | 0.22 | 91 | 1005.1 |
| 20260506233509 | 59 | 140 | 1.0 | 4.0 | 0.04 | 0.22 | 0.22 | 91 | 1005.0 |
| 20260506233027 | 59 | 207 | 1.0 | 5.0 | 0.04 | 0.22 | 0.22 | 91 | 1005.1 |
| 20260506232506 | 59 | 244 | 1.0 | 5.0 | 0.05 | 0.22 | 0.22 | 91 | 1005.1 |
| 20260506232010 | 59 | 291 | 0.0 | 4.0 | 0.06 | 0.22 | 0.22 | 91 | 1005.1 |
| 20260506231515 | 59 | 242 | 0.0 | 7.0 | 0.06 | 0.22 | 0.22 | 91 | 1005.1 |
| 20260506231008 | 59 | 62 | 2.0 | 7.0 | 0.06 | 0.22 | 0.22 | 91 | 1005.2 |
| 20260506230507 | 59 | 180 | 2.0 | 6.0 | 0.07 | 0.22 | 0.22 | 91 | 1005.1 |
| 20260506230017 | 59 | 263 | 0.0 | 5.0 | 0.07 | 0.22 | 0.22 | 91 | 1005.3 |
| 20260506225508 | 59 | 146 | 2.0 | 5.0 | 0.06 | 0.21 | 0.21 | 91 | 1005.2 |
| 20260506225003 | 59 | 11 | 1.0 | 4.0 | 0.05 | 0.20 | 0.20 | 91 | 1005.3 |
| 20260506224518 | 59 | 246 | 1.0 | 7.0 | 0.04 | 0.19 | 0.19 | 91 | 1005.3 |
| 20260506224006 | 59 | 140 | 1.0 | 6.0 | 0.05 | 0.19 | 0.19 | 91 | 1005.3 |
| 20260506223502 | 59 | 272 | 2.0 | 10.0 | 0.04 | 0.18 | 0.18 | 91 | 1005.4 |
| 20260506223020 | 59 | 205 | 2.0 | 10.0 | 0.05 | 0.18 | 0.18 | 91 | 1005.3 |
| 20260506222506 | 59 | 226 | 1.0 | 6.0 | 0.05 | 0.17 | 0.17 | 90 | 1005.2 |
| 20260506222006 | 59 | 234 | 2.0 | 8.0 | 0.04 | 0.16 | 0.16 | 90 | 1005.2 |
| 20260506221520 | 59 | 157 | 2.0 | 8.0 | 0.04 | 0.16 | 0.16 | 90 | 1005.3 |
| 20260506221014 | 59 | 278 | 3.0 | 11.0 | 0.04 | 0.16 | 0.16 | 90 | 1005.3 |
| 20260506220507 | 59 | 185 | 1.0 | 11.0 | 0.03 | 0.15 | 0.15 | 90 | 1005.4 |
| 20260506220024 | 59 | 263 | 4.0 | 15.0 | 0.03 | 0.15 | 0.15 | 90 | 1005.4 |
| 20260506215511 | 59 | 109 | 5.0 | 15.0 | 0.03 | 0.15 | 0.15 | 90 | 1005.3 |
| 20260506215006 | 59 | 215 | 2.0 | 8.0 | 0.03 | 0.15 | 0.15 | 90 | 1005.4 |
| 20260506214520 | 59 | 214 | 2.0 | 7.0 | 0.04 | 0.15 | 0.15 | 90 | 1005.4 |
| 20260506214009 | 59 | 151 | 3.0 | 8.0 | 0.03 | 0.14 | 0.14 | 90 | 1005.5 |
| 20260506213505 | 59 | 274 | 1.0 | 8.0 | 0.04 | 0.14 | 0.14 | 89 | 1005.5 |
| 20260506213023 | 59 | 238 | 1.0 | 7.0 | 0.04 | 0.13 | 0.13 | 89 | 1005.4 |
| 20260506212509 | 60 | 289 | 1.0 | 7.0 | 0.03 | 0.12 | 0.12 | 89 | 1005.4 |
| 20260506212006 | 60 | 74 | 2.0 | 7.0 | 0.04 | 0.12 | 0.12 | 89 | 1005.5 |
| 20260506211524 | 60 | 263 | 3.0 | 9.0 | 0.04 | 0.12 | 0.12 | 89 | 1005.6 |
| 20260506211010 | 60 | 16 | 2.0 | 9.0 | 0.04 | 0.12 | 0.12 | 89 | 1005.6 |
| 20260506210506 | 60 | 74 | 1.0 | 12.0 | 0.05 | 0.12 | 0.12 | 89 | 1005.7 |
| 20260506210028 | 60 | 190 | 3.0 | 13.0 | 0.05 | 0.12 | 0.12 | 89 | 1005.8 |
| 20260506205511 | 60 | 132 | 4.0 | 13.0 | 0.06 | 0.12 | 0.12 | 90 | 1005.8 |
| 20260506205007 | 60 | 127 | 1.0 | 8.0 | 0.06 | 0.12 | 0.12 | 89 | 1005.8 |
| 20260506204525 | 60 | 81 | 1.0 | 7.0 | 0.05 | 0.11 | 0.11 | 89 | 1005.9 |
| 20260506204009 | 60 | 75 | 1.0 | 8.0 | 0.05 | 0.11 | 0.11 | 89 | 1006.0 |
| 20260506203508 | 60 | 298 | 1.0 | 8.0 | 0.04 | 0.10 | 0.10 | 89 | 1006.0 |
| 20260506203023 | 60 | 262 | 2.0 | 7.0 | 0.03 | 0.09 | 0.09 | 88 | 1006.1 |
| 20260506202502 | 60 | 235 | 2.0 | 9.0 | 0.03 | 0.09 | 0.09 | 88 | 1006.0 |
| 20260506202008 | 61 | 238 | 2.0 | 13.0 | 0.02 | 0.08 | 0.08 | 87 | 1006.0 |
| 20260506201526 | 61 | 271 | 3.0 | 13.0 | 0.02 | 0.08 | 0.08 | 87 | 1006.1 |
| 20260506201003 | 61 | 160 | 3.0 | 11.0 | 0.02 | 0.08 | 0.08 | 87 | 1006.0 |
| 20260506200510 | 61 | 189 | 2.0 | 7.0 | 0.01 | 0.07 | 0.07 | 87 | 1006.0 |
| 20260506200025 | 61 | 157 | 2.0 | 10.0 | 0.01 | 0.07 | 0.07 | 86 | 1006.1 |
| 20260506195509 | 62 | 168 | 1.0 | 10.0 | 0.00 | 0.06 | 0.06 | 85 | 1006.1 |
| 20260506195006 | 62 | 238 | 6.0 | 9.0 | 0.01 | 0.06 | 0.06 | 86 | 1006.2 |
| 20260506194527 | 62 | 149 | 1.0 | 7.0 | 0.01 | 0.06 | 0.06 | 86 | 1006.2 |
| 20260506194007 | 62 | 314 | 3.0 | 7.0 | 0.02 | 0.06 | 0.06 | 85 | 1006.2 |
| 20260506193511 | 62 | 317 | 1.0 | 8.0 | 0.02 | 0.06 | 0.06 | 85 | 1006.2 |
| 20260506193031 | 62 | 222 | 3.0 | 12.0 | 0.03 | 0.06 | 0.06 | 85 | 1006.1 |
| 20260506192508 | 62 | 10 | 5.0 | 12.0 | 0.03 | 0.06 | 0.06 | 85 | 1006.1 |
| 20260506192010 | 62 | 67 | 3.0 | 12.0 | 0.04 | 0.06 | 0.06 | 86 | 1006.1 |
| 20260506191528 | 62 | 229 | 3.0 | 12.0 | 0.04 | 0.06 | 0.06 | 87 | 1006.1 |
| 20260506191010 | 62 | 295 | 1.0 | 5.0 | 0.04 | 0.06 | 0.06 | 88 | 1006.2 |
| 20260506190509 | 62 | 262 | 1.0 | 5.0 | 0.06 | 0.06 | 0.06 | 87 | 1006.1 |
| 20260506190008 | 62 | 190 | 0.0 | 3.0 | 0.06 | 0.06 | 0.06 | 87 | 1006.0 |
| 20260506185506 | 62 | 200 | 0.0 | 7.0 | 0.06 | 0.06 | 0.06 | 85 | 1006.1 |
| 20260506185009 | 62 | 265 | 2.0 | 7.0 | 0.05 | 0.05 | 0.05 | 85 | 1006.2 |
| 20260506184511 | 62 | 271 | 2.0 | 7.0 | 0.05 | 0.05 | 0.05 | 85 | 1006.3 |
| 20260506184006 | 63 | 237 | 3.0 | 13.0 | 0.04 | 0.04 | 0.04 | 83 | 1006.3 |
| 20260506183507 | 63 | 278 | 4.0 | 13.0 | 0.04 | 0.04 | 0.04 | 82 | 1006.5 |
| 20260506183013 | 63 | 302 | 5.0 | 11.0 | 0.03 | 0.03 | 0.03 | 81 | 1006.4 |
| 20260506182506 | 63 | 225 | 5.0 | 10.0 | 0.03 | 0.03 | 0.03 | 82 | 1006.5 |
| 20260506182009 | 63 | 244 | 1.0 | 8.0 | 0.02 | 0.02 | 0.02 | 82 | 1006.8 |
| 20260506181512 | 64 | 245 | 3.0 | 8.0 | 0.02 | 0.02 | 0.02 | 80 | 1006.8 |
| 20260506181010 | 65 | 282 | 2.0 | 11.0 | 0.02 | 0.02 | 0.02 | 77 | 1006.8 |
| 20260506180506 | 66 | 224 | 6.0 | 11.0 | 0.00 | 0.00 | 0.00 | 72 | 1007.0 |
| 20260506180012 | 67 | 294 | 3.0 | 10.0 | 0.00 | 0.00 | 0.00 | 67 | 1006.8 |
| 20260506175507 | 68 | 249 | 5.0 | 10.0 | 0.00 | 0.00 | 0.00 | 64 | 1006.8 |
| 20260506175003 | 69 | 275 | 2.0 | 7.0 | 0.00 | 0.00 | 0.00 | 61 | 1006.7 |
| 20260506174529 | 69 | 229 | 2.0 | 11.0 | 0.00 | 0.00 | 0.00 | 60 | 1006.7 |
| 20260506174010 | 70 | 274 | 3.0 | 12.0 | 0.00 | 0.00 | 0.00 | 59 | 1006.6 |
| 20260506173502 | 70 | 261 | 7.0 | 17.0 | 0.00 | 0.00 | 0.00 | 59 | 1006.5 |
| 20260506173016 | 70 | 211 | 9.0 | 19.0 | 0.00 | 0.00 | 0.00 | 57 | 1006.5 |
| 20260506172506 | 70 | 271 | 9.0 | 27.0 | 0.00 | 0.00 | 0.00 | 57 | 1006.6 |
| 20260506172008 | 71 | 262 | 4.0 | 27.0 | 0.00 | 0.00 | 0.00 | 58 | 1006.5 |
| 20260506171521 | 71 | 205 | 7.0 | 15.0 | 0.00 | 0.00 | 0.00 | 56 | 1006.4 |
| 20260506171006 | 71 | 283 | 4.0 | 13.0 | 0.00 | 0.00 | 0.00 | 55 | 1006.4 |
| 20260506170505 | 71 | 324 | 4.0 | 12.0 | 0.00 | 0.00 | 0.00 | 58 | 1006.4 |
| 20260506170026 | 72 | 254 | 5.0 | 12.0 | 0.00 | 0.00 | 0.00 | 57 | 1006.6 |
| 20260506165513 | 71 | 284 | 6.0 | 11.0 | 0.00 | 0.00 | 0.00 | 56 | 1006.6 |
| 20260506165003 | 72 | 160 | 6.0 | 11.0 | 0.00 | 0.00 | 0.00 | 58 | 1006.7 |
| 20260506164518 | 71 | 321 | 3.0 | 9.0 | 0.00 | 0.00 | 0.00 | 58 | 1006.8 |
| 20260506164011 | 71 | 110 | 4.0 | 11.0 | 0.00 | 0.00 | 0.00 | 57 | 1006.8 |
| 20260506163503 | 71 | 228 | 5.0 | 11.0 | 0.00 | 0.00 | 0.00 | 60 | 1007.1 |
| 20260506163041 | 70 | 218 | 4.0 | 12.0 | 0.00 | 0.00 | 0.00 | 59 | 1006.9 |
| 20260506162512 | 70 | 352 | 5.0 | 12.0 | 0.00 | 0.00 | 0.00 | 59 | 1007.1 |
| 20260506162005 | 70 | 85 | 4.0 | 8.0 | 0.00 | 0.00 | 0.00 | 62 | 1007.1 |
| 20260506161524 | 70 | 240 | 2.0 | 8.0 | 0.00 | 0.00 | 0.00 | 62 | 1007.3 |
| 20260506161010 | 70 | 252 | 1.0 | 9.0 | 0.00 | 0.00 | 0.00 | 62 | 1007.2 |
| 20260506160506 | 69 | 296 | 4.0 | 9.0 | 0.00 | 0.00 | 0.00 | 65 | 1007.3 |
| 20260506160024 | 70 | 234 | 2.0 | 8.0 | 0.00 | 0.00 | 0.00 | 61 | 1007.5 |
| 20260506155503 | 69 | 279 | 4.0 | 8.0 | 0.00 | 0.00 | 0.00 | 63 | 1007.6 |
| 20260506155010 | 69 | 231 | 1.0 | 10.0 | 0.00 | 0.00 | 0.00 | 65 | 1007.7 |
| 20260506154526 | 69 | 117 | 3.0 | 10.0 | 0.00 | 0.00 | 0.00 | 64 | 1007.7 |
| 20260506154008 | 69 | 174 | 2.0 | 9.0 | 0.00 | 0.00 | 0.00 | 64 | 1007.9 |
| 20260506153506 | 68 | 203 | 2.0 | 9.0 | 0.00 | 0.00 | 0.00 | 64 | 1008.0 |
| 20260506153028 | 68 | 248 | 5.0 | 9.0 | 0.00 | 0.00 | 0.00 | 66 | 1008.1 |
| 20260506152505 | 68 | 303 | 2.0 | 9.0 | 0.00 | 0.00 | 0.00 | 66 | 1008.1 |
| 20260506152014 | 68 | 313 | 2.0 | 9.0 | 0.00 | 0.00 | 0.00 | 66 | 1008.3 |
| 20260506151524 | 68 | 283 | 4.0 | 14.0 | 0.00 | 0.00 | 0.00 | 65 | 1008.3 |
| 20260506151004 | 68 | 232 | 4.0 | 14.0 | 0.00 | 0.00 | 0.00 | 65 | 1008.5 |
| 20260506150506 | 68 | 152 | 5.0 | 13.0 | 0.00 | 0.00 | 0.00 | 65 | 1008.5 |
| 20260506150027 | 68 | 254 | 3.0 | 15.0 | 0.00 | 0.00 | 0.00 | 66 | 1008.6 |
| 20260506145508 | 68 | 194 | 6.0 | 16.0 | 0.00 | 0.00 | 0.00 | 65 | 1008.3 |
| 20260506145007 | 68 | 319 | 2.0 | 16.0 | 0.00 | 0.00 | 0.00 | 67 | 1008.3 |
| 20260506144527 | 67 | 148 | 5.0 | 12.0 | 0.00 | 0.00 | 0.00 | 66 | 1008.6 |
| 20260506144004 | 67 | 135 | 2.0 | 10.0 | 0.00 | 0.00 | 0.00 | 68 | 1008.6 |
| 20260506143510 | 67 | 124 | 4.0 | 10.0 | 0.00 | 0.00 | 0.00 | 67 | 1008.6 |
| 20260506143033 | 67 | 260 | 5.0 | 9.0 | 0.00 | 0.00 | 0.00 | 67 | 1008.5 |
| 20260506142508 | 67 | 273 | 3.0 | 9.0 | 0.00 | 0.00 | 0.00 | 67 | 1008.5 |
| 20260506142006 | 67 | 238 | 4.0 | 10.0 | 0.00 | 0.00 | 0.00 | 69 | 1008.4 |
| 20260506141526 | 66 | 232 | 3.0 | 10.0 | 0.00 | 0.00 | 0.00 | 68 | 1008.5 |
| 20260506141004 | 67 | 294 | 2.0 | 13.0 | 0.00 | 0.00 | 0.00 | 68 | 1008.3 |
| 20260506140507 | 67 | 261 | 4.0 | 13.0 | 0.00 | 0.00 | 0.00 | 68 | 1008.2 |
| 20260506140026 | 67 | 157 | 1.0 | 10.0 | 0.00 | 0.00 | 0.00 | 68 | 1008.1 |
| 20260506135504 | 67 | 240 | 2.0 | 10.0 | 0.00 | 0.00 | 0.00 | 69 | 1008.2 |
| 20260506135011 | 66 | 122 | 3.0 | 9.0 | 0.00 | 0.00 | 0.00 | 69 | 1008.2 |
| 20260506134526 | 66 | 208 | 1.0 | 7.0 | 0.00 | 0.00 | 0.00 | 69 | 1008.4 |
| 20260506134011 | 66 | 139 | 1.0 | 7.0 | 0.00 | 0.00 | 0.00 | 70 | 1008.2 |
| 20260506133513 | 65 | 215 | 2.0 | 7.0 | 0.00 | 0.00 | 0.00 | 70 | 1008.4 |
| 20260506133032 | 65 | 207 | 2.0 | 9.0 | 0.00 | 0.00 | 0.00 | 71 | 1008.4 |
| 20260506132503 | 65 | 188 | 3.0 | 11.0 | 0.00 | 0.00 | 0.00 | 71 | 1008.6 |
| 20260506132007 | 65 | 200 | 3.0 | 11.0 | 0.00 | 0.00 | 0.00 | 72 | 1008.6 |
| 20260506131529 | 65 | 213 | 5.0 | 10.0 | 0.00 | 0.00 | 0.00 | 70 | 1008.7 |
| 20260506131007 | 65 | 192 | 4.0 | 10.0 | 0.00 | 0.00 | 0.00 | 71 | 1008.8 |
| 20260506130514 | 64 | 184 | 4.0 | 7.0 | 0.00 | 0.00 | 0.00 | 72 | 1008.8 |
| 20260506130014 | 64 | 278 | 1.0 | 10.0 | 0.00 | 0.00 | 0.00 | 72 | 1008.8 |
| 20260506125507 | 64 | 259 | 1.0 | 10.0 | 0.00 | 0.00 | 0.00 | 73 | 1008.8 |
| 20260506125007 | 64 | 247 | 3.0 | 7.0 | 0.00 | 0.00 | 0.00 | 73 | 1008.8 |
| 20260506124514 | 63 | 115 | 3.0 | 16.0 | 0.00 | 0.00 | 0.00 | 72 | 1008.7 |
| 20260506124008 | 63 | 307 | 3.0 | 16.0 | 0.00 | 0.00 | 0.00 | 73 | 1008.8 |
| 20260506123506 | 63 | 323 | 4.0 | 13.0 | 0.00 | 0.00 | 0.00 | 72 | 1008.7 |
| 20260506123032 | 64 | 360 | 4.0 | 13.0 | 0.00 | 0.00 | 0.00 | 72 | 1008.7 |
| 20260506122505 | 64 | 144 | 2.0 | 8.0 | 0.00 | 0.00 | 0.00 | 72 | 1008.5 |
| 20260506122009 | 63 | 223 | 2.0 | 3.0 | 0.00 | 0.00 | 0.00 | 74 | 1008.6 |
| 20260506121515 | 62 | 127 | 2.0 | 8.0 | 0.00 | 0.00 | 0.00 | 75 | 1008.6 |
| 20260506121006 | 62 | 155 | 2.0 | 9.0 | 0.00 | 0.00 | 0.00 | 76 | 1008.8 |
| 20260506120509 | 62 | 260 | 3.0 | 9.0 | 0.00 | 0.00 | 0.00 | 75 | 1009.0 |
| 20260506120018 | 62 | 225 | 3.0 | 7.0 | 0.00 | 0.00 | 0.00 | 75 | 1008.8 |
| 20260506115509 | 62 | 290 | 2.0 | 8.0 | 0.00 | 0.00 | 0.00 | 74 | 1008.8 |
| 20260506115008 | 62 | 203 | 3.0 | 8.0 | 0.00 | 0.00 | 0.00 | 76 | 1008.7 |
| 20260506114522 | 61 | 327 | 3.0 | 8.0 | 0.00 | 0.00 | 0.00 | 77 | 1008.9 |
| 20260506114011 | 60 | 242 | 3.0 | 8.0 | 0.00 | 0.00 | 0.00 | 77 | 1009.0 |
| 20260506113508 | 60 | 268 | 2.0 | 8.0 | 0.00 | 0.00 | 0.00 | 77 | 1009.0 |
| 20260506113018 | 60 | 71 | 2.0 | 6.0 | 0.00 | 0.00 | 0.00 | 77 | 1009.1 |
| 20260506112514 | 60 | 239 | 1.0 | 7.0 | 0.00 | 0.00 | 0.00 | 77 | 1009.1 |
| 20260506112009 | 60 | 59 | 2.0 | 7.0 | 0.00 | 0.00 | 0.00 | 77 | 1009.1 |
| 20260506111535 | 60 | 238 | 1.0 | 8.0 | 0.00 | 0.00 | 0.00 | 77 | 1009.2 |
| 20260506111007 | 60 | 166 | 2.0 | 11.0 | 0.00 | 0.00 | 0.00 | 77 | 1009.2 |
| 20260506110507 | 60 | 238 | 2.0 | 11.0 | 0.00 | 0.00 | 0.00 | 76 | 1009.3 |
| 20260506110025 | 60 | 182 | 3.0 | 9.0 | 0.00 | 0.00 | 0.00 | 77 | 1009.1 |
| 20260506105509 | 60 | 245 | 3.0 | 9.0 | 0.00 | 0.00 | 0.00 | 76 | 1009.0 |
| 20260506105007 | 60 | 95 | 2.0 | 9.0 | 0.00 | 0.00 | 0.00 | 77 | 1009.0 |
| 20260506104524 | 60 | 252 | 3.0 | 8.0 | 0.00 | 0.00 | 0.00 | 78 | 1009.3 |
| 20260506104008 | 59 | 279 | 2.0 | 4.0 | 0.00 | 0.00 | 0.00 | 78 | 1009.3 |
| 20260506103506 | 59 | 63 | 1.0 | 3.0 | 0.00 | 0.00 | 0.00 | 78 | 1009.3 |
| 20260506103027 | 59 | 121 | 1.0 | 8.0 | 0.00 | 0.00 | 0.00 | 79 | 1009.2 |
| 20260506102507 | 58 | 217 | 5.0 | 8.0 | 0.00 | 0.00 | 0.00 | 79 | 1009.2 |
| 20260506102010 | 58 | 145 | 2.0 | 6.0 | 0.00 | 0.00 | 0.00 | 79 | 1009.2 |
| 20260506101524 | 58 | 222 | 2.0 | 5.0 | 0.00 | 0.00 | 0.00 | 78 | 1009.2 |
| 20260506101006 | 59 | 210 | 1.0 | 6.0 | 0.00 | 0.00 | 0.00 | 78 | 1009.1 |
| 20260506100506 | 59 | 264 | 1.0 | 7.0 | 0.00 | 0.00 | 0.00 | 78 | 1009.2 |
| 20260506100008 | 59 | 146 | 1.0 | 7.0 | 0.00 | 0.00 | 0.00 | 78 | 1009.3 |
| 20260506095511 | 59 | 78 | 1.0 | 5.0 | 0.00 | 0.00 | 0.00 | 78 | 1009.2 |
| 20260506095009 | 58 | 76 | 2.0 | 5.0 | 0.00 | 0.00 | 0.00 | 77 | 1009.1 |
| 20260506094506 | 59 | 60 | 1.0 | 6.0 | 0.00 | 0.00 | 0.00 | 77 | 1009.0 |
| 20260506094002 | 59 | 180 | 1.0 | 6.0 | 0.00 | 0.00 | 0.00 | 77 | 1009.1 |
| 20260506093506 | 59 | 251 | 1.0 | 5.0 | 0.00 | 0.00 | 0.00 | 78 | 1009.0 |
| 20260506093005 | 59 | 200 | 1.0 | 3.0 | 0.00 | 0.00 | 0.00 | 78 | 1009.0 |
| 20260506092503 | 58 | 336 | 1.0 | 4.0 | 0.00 | 0.00 | 0.00 | 78 | 1008.8 |
| 20260506092007 | 58 | 74 | 1.0 | 4.0 | 0.00 | 0.00 | 0.00 | 78 | 1009.0 |
| 20260506091527 | 58 | 186 | 1.0 | 7.0 | 0.00 | 0.00 | 0.00 | 78 | 1009.2 |
| 20260506091003 | 59 | 126 | 2.0 | 9.0 | 0.00 | 0.00 | 0.00 | 77 | 1009.0 |
| 20260506090506 | 59 | 159 | 3.0 | 9.0 | 0.00 | 0.00 | 0.00 | 77 | 1009.0 |
| 20260506090010 | 59 | 333 | 0.0 | 4.0 | 0.00 | 0.00 | 0.00 | 77 | 1009.1 |
| 20260506085503 | 59 | 140 | 1.0 | 4.0 | 0.00 | 0.00 | 0.00 | 77 | 1009.1 |
| 20260506085003 | 59 | 213 | 1.0 | 5.0 | 0.00 | 0.00 | 0.00 | 77 | 1009.0 |
| 20260506084506 | 58 | 202 | 1.0 | 5.0 | 0.00 | 0.00 | 0.00 | 77 | 1009.1 |
| 20260506084005 | 58 | 152 | 2.0 | 4.0 | 0.00 | 0.00 | 0.00 | 77 | 1009.1 |
| 20260506083502 | 58 | 160 | 1.0 | 5.0 | 0.00 | 0.00 | 0.00 | 77 | 1009.1 |
| 20260506083012 | 59 | 276 | 1.0 | 4.0 | 0.00 | 0.00 | 0.00 | 76 | 1009.1 |
| 20260506082507 | 59 | 214 | 1.0 | 4.0 | 0.00 | 0.00 | 0.00 | 76 | 1009.1 |
| 20260506082008 | 59 | 275 | 1.0 | 4.0 | 0.00 | 0.00 | 0.00 | 75 | 1009.1 |
| 20260506081512 | 59 | 116 | 1.0 | 4.0 | 0.00 | 0.00 | 0.00 | 76 | 1009.0 |
| 20260506081009 | 59 | 226 | 2.0 | 4.0 | 0.00 | 0.00 | 0.00 | 76 | 1009.0 |
| 20260506080508 | 59 | 257 | 1.0 | 6.0 | 0.00 | 0.00 | 0.00 | 75 | 1009.0 |
| 20260506073504 | 58 | 212 | 1.0 | 7.0 | 0.00 | 0.00 | 0.00 | 76 | 1009.0 |
| 20260506073016 | 58 | 275 | 1.0 | 6.0 | 0.00 | 0.00 | 0.00 | 75 | 1009.0 |
| 20260506072510 | 58 | 175 | 1.0 | 6.0 | 0.00 | 0.00 | 0.00 | 74 | 1008.9 |
| 20260506072004 | 58 | 275 | 1.0 | 3.0 | 0.00 | 0.00 | 0.00 | 76 | 1008.9 |
| 20260506071533 | 57 | 191 | 1.0 | 3.0 | 0.00 | 0.00 | 0.00 | 76 | 1008.8 |
| 20260506071012 | 57 | 243 | 1.0 | 2.0 | 0.00 | 0.00 | 0.00 | 76 | 1008.8 |
| 20260506070508 | 57 | 242 | 0.0 | 2.0 | 0.00 | 0.00 | 0.00 | 76 | 1008.7 |
| 20260506062512 | 59 | 238 | 0.0 | 2.0 | 0.00 | 0.00 | 0.00 | 71 | 1008.7 |
| 20260506062003 | 60 | 234 | 0.0 | 3.0 | 0.00 | 0.00 | 0.00 | 70 | 1008.6 |
| 20260506061535 | 60 | 225 | 0.0 | 7.0 | 0.00 | 0.00 | 0.00 | 69 | 1008.6 |
| 20260506061010 | 61 | 309 | 0.0 | 7.0 | 0.00 | 0.00 | 0.00 | 68 | 1008.5 |
| 20260506060509 | 61 | 138 | 1.0 | 4.0 | 0.00 | 0.00 | 0.00 | 68 | 1008.4 |
| 20260506051005 | 61 | 194 | 1.0 | 4.0 | 0.00 | 0.00 | 0.00 | 66 | 1008.6 |
| 20260506050511 | 61 | 134 | 1.0 | 4.0 | 0.00 | 0.00 | 0.00 | 66 | 1008.7 |
| 20260506045007 | 61 | 26 | 0.0 | 5.0 | 0.00 | 0.00 | 0.00 | 65 | 1008.8 |
| 20260506044533 | 61 | 233 | 1.0 | 5.0 | 0.00 | 0.00 | 0.00 | 65 | 1008.8 |
| 20260506044002 | 62 | 292 | 1.0 | 4.0 | 0.00 | 0.00 | 0.00 | 64 | 1008.8 |
| 20260506043509 | 62 | 291 | 0.0 | 4.0 | 0.00 | 0.00 | 0.00 | 64 | 1008.9 |
| 20260506043025 | 62 | 182 | 1.0 | 4.0 | 0.00 | 0.00 | 0.00 | 63 | 1008.9 |
| 20260506042505 | 62 | 119 | 1.0 | 3.0 | 0.00 | 0.00 | 0.00 | 63 | 1008.8 |
| 20260506042013 | 62 | 300 | 1.0 | 5.0 | 0.00 | 0.00 | 0.00 | 63 | 1008.8 |
| 20260506041529 | 62 | 243 | 1.0 | 5.0 | 0.00 | 0.00 | 0.00 | 63 | 1008.9 |
| 20260506041002 | 62 | 184 | 1.0 | 6.0 | 0.00 | 0.00 | 0.00 | 63 | 1008.8 |